TimeCEST,TemperatureF,Dew PointF,Humidity,Sea Level PressureIn,VisibilityMPH,Wind Direction,Wind SpeedMPH,Gust SpeedMPH,PrecipitationIn,Events,Conditions,WindDirDegrees,DateUTC
12:00 AM,71.6,66.2,83,30.09,-9999.0,ENE,3.5,-,N/A,,Clear,70,2012-09-08 22:00:00
12:30 AM,71.6,66.2,83,30.09,-9999.0,ENE,3.5,-,N/A,,Clear,70,2012-09-08 22:30:00
1:00 AM,69.8,66.2,88,30.09,-9999.0,East,2.3,-,N/A,,Clear,80,2012-09-08 23:00:00
1:30 AM,69.8,66.2,88,30.09,-9999.0,NE,1.2,-,N/A,,Clear,50,2012-09-08 23:30:00
2:00 AM,69,64,79,30.09,9,ENE,2.3,,,,,60,2012-09-09 00:00:00
2:00 AM,69.8,66.2,88,30.09,-9999.0,Variable,1.2,-,N/A,,Clear,0,2012-09-09 00:00:00
2:30 AM,69.8,66.2,88,30.06,-9999.0,Variable,2.3,-,N/A,,Clear,0,2012-09-09 00:30:00
3:00 AM,68.0,66.2,94,30.06,-9999.0,NNE,1.2,-,N/A,,Clear,30,2012-09-09 01:00:00
3:30 AM,68.0,66.2,94,30.06,-9999.0,Calm,Calm,-,N/A,,Clear,0,2012-09-09 01:30:00
4:00 AM,68.0,66.2,94,30.06,-9999.0,Calm,Calm,-,N/A,,Clear,0,2012-09-09 02:00:00
4:30 AM,68.0,64.4,88,30.06,-9999.0,North,1.2,-,N/A,,Clear,360,2012-09-09 02:30:00
5:00 AM,68.0,66.2,94,30.04,-9999.0,Calm,Calm,-,N/A,,Clear,0,2012-09-09 03:00:00
5:30 AM,66.2,64.4,94,30.04,-9999.0,ENE,1.2,-,N/A,,Clear,70,2012-09-09 03:30:00
7:00 AM,64.4,62.6,94,30.04,-9999.0,Calm,Calm,-,N/A,,Clear,0,2012-09-09 05:00:00
7:30 AM,64.4,62.6,94,30.04,-9999.0,Calm,Calm,-,N/A,,Clear,0,2012-09-09 05:30:00
8:00 AM,70,66,84,30.06,5,ENE,2.3,,,,Mist,70,2012-09-09 06:00:00
8:00 AM,64.4,62.6,94,30.06,5.0,Calm,Calm,-,N/A,,Unknown,0,2012-09-09 06:00:00
8:30 AM,66.2,66.2,100,30.06,5.0,Calm,Calm,-,N/A,,Unknown,0,2012-09-09 06:30:00
9:00 AM,69.8,68.0,94,30.06,5.0,Variable,2.3,-,N/A,,Unknown,0,2012-09-09 07:00:00
9:30 AM,71.6,68.0,88,30.06,5.0,Variable,1.2,-,N/A,,Unknown,0,2012-09-09 07:30:00
10:00 AM,77.0,68.0,74,30.06,5.0,Variable,2.3,-,N/A,,Unknown,0,2012-09-09 08:00:00
10:30 AM,78.8,68.0,69,30.06,5.0,Variable,1.2,-,N/A,,Partly Cloudy,0,2012-09-09 08:30:00
11:00 AM,78.8,68.0,69,30.09,5.0,SW,3.5,-,N/A,,Partly Cloudy,230,2012-09-09 09:00:00
11:30 AM,78.8,68.0,69,30.09,5.0,SW,5.8,-,N/A,,Partly Cloudy,230,2012-09-09 09:30:00
12:00 PM,82.4,68.0,62,30.09,6.2,SW,8.1,-,N/A,,Partly Cloudy,230,2012-09-09 10:00:00
12:30 PM,82.4,68.0,62,30.09,6.2,SW,9.2,-,N/A,,Partly Cloudy,230,2012-09-09 10:30:00
1:00 PM,82.4,66.2,58,30.09,6.2,SSW,10.4,-,N/A,,Partly Cloudy,210,2012-09-09 11:00:00
2:00 PM,83,65,46,30.09,7,SSW,11.5,,,,Scattered Clouds,210,2012-09-09 12:00:00
2:00 PM,82.4,68.0,62,30.06,6.2,SW,10.4,-,N/A,,Partly Cloudy,220,2012-09-09 12:00:00
2:30 PM,80.6,68.0,65,30.06,6.2,SW,11.5,-,N/A,,Partly Cloudy,230,2012-09-09 12:30:00
3:00 PM,80.6,68.0,65,30.06,6.2,SSW,11.5,-,N/A,,Partly Cloudy,210,2012-09-09 13:00:00
3:30 PM,82.4,68.0,62,30.06,6.2,SW,10.4,-,N/A,,Partly Cloudy,230,2012-09-09 13:30:00
4:00 PM,82.4,68.0,62,30.04,6.2,WSW,11.5,-,N/A,,Partly Cloudy,240,2012-09-09 14:00:00
4:30 PM,80.6,68.0,65,30.04,6.2,SW,11.5,-,N/A,,Partly Cloudy,230,2012-09-09 14:30:00
5:00 PM,80.6,68.0,65,30.04,6.2,SW,10.4,-,N/A,,Partly Cloudy,230,2012-09-09 15:00:00
5:30 PM,80.6,68.0,65,30.04,6.2,SW,11.5,-,N/A,,Partly Cloudy,230,2012-09-09 15:30:00
6:00 PM,80.6,68.0,65,30.04,6.2,SW,10.4,-,N/A,,Partly Cloudy,230,2012-09-09 16:00:00
6:30 PM,78.8,68.0,69,30.04,6.2,SSW,6.9,-,N/A,,Partly Cloudy,210,2012-09-09 16:30:00
7:00 PM,78.8,68.0,69,30.04,6.2,SW,6.9,-,N/A,,Partly Cloudy,230,2012-09-09 17:00:00
7:30 PM,78.8,68.0,69,30.04,-9999.0,SW,6.9,-,N/A,,Clear,220,2012-09-09 17:30:00
8:00 PM,77,65,59,30.04,7,SW,8.1,,,,Scattered Clouds,230,2012-09-09 18:00:00
8:00 PM,77.0,68.0,74,30.04,6.2,SW,6.9,-,N/A,,Partly Cloudy,230,2012-09-09 18:00:00
8:30 PM,77.0,69.8,78,30.04,5.6,SW,4.6,-,N/A,,Partly Cloudy,220,2012-09-09 18:30:00
9:00 PM,77.0,68.0,74,30.04,5.0,SSW,2.3,-,N/A,,Unknown,210,2012-09-09 19:00:00
9:30 PM,77.0,68.0,74,30.06,6.2,SSE,2.3,-,N/A,,Partly Cloudy,160,2012-09-09 19:30:00
10:00 PM,75.2,68.0,78,30.06,6.2,Variable,1.2,-,N/A,,Partly Cloudy,0,2012-09-09 20:00:00
10:30 PM,73.4,68.0,83,30.06,6.2,ESE,2.3,-,N/A,,Partly Cloudy,120,2012-09-09 20:30:00
11:00 PM,71.6,66.2,83,30.06,6.2,Calm,Calm,-,N/A,,Partly Cloudy,0,2012-09-09 21:00:00
11:30 PM,71.6,66.2,83,30.06,6.2,Calm,Calm,-,N/A,,Partly Cloudy,0,2012-09-09 21:30:00